{"data":{"norad_id":59622,"epoch":"2026-05-24T22:42:08.817696Z","epoch_age_seconds":76108,"freshness":"FRESH","line1":"1 59622U 24080X   26144.94593539  .00001231  00000+0  54241-4 0  9998","line2":"2 59622  43.0010 323.9212 0000997 305.9169  54.1590 15.27583378116230","mean_motion":15.27583378,"eccentricity":9.97e-5,"inclination_deg":43.001,"raan_deg":323.9212,"arg_perigee_deg":305.9169,"mean_anomaly_deg":54.159,"bstar":5.4241e-5,"rev_number":11623,"period_min":94.266540258204,"perigee_km":482.35492186575,"apogee_km":483.72304035638,"semimajor_km":6861.1759811111,"source":"CELESTRAK","updated_at":"2026-05-25T13:38:19.011971Z"}}